Temperature
17 17 17 17 16 16 16 16 15 15 15 15 15 15 15 15 14 14 14 14 14 14 14 14 14 14 14 14 14 14 14 14 13 12 12 12 12 12 12 12 12 12 12
18 17 17 17 16 16 16 16 16 15 15 15 15 15 15 15 14 14 14 14 14 14 14 14 14 14 14 13 13 13 13 13 13 13 12 12 12 12 12 12 12 12 12
18 17 17 17 17 16 16 16 16 15 15 15 15 15 15 15 14 14 14 14 14 14 14 14 13 13 13 13 13 13 13 13 13 12 12 12 12 12 12 12 12 12 11
18 17 17 17 17 17 16 16 16 16 15 15 15 15 15 15 14 14 14 14 14 14 14 14 13 13 13 13 13 13 13 12 12 12 12 12 12 12 11 11 11 11 11
18 17 17 17 17 17 17 16 16 16 15 15 15 15 15 15 14 14 14 14 14 14 14 14 14 13 13 13 13 13 12 12 12 12 12 12 11 11 11 11 11 11 11
18 18 17 17 17 17 17 17 16 16 16 15 15 15 15 15 15 15 14 14 14 13 13 13 13 13 13 13 13 13 13 12 12 12 11 11 11 11 11 11 11 11 10
18 18 18 17 17 17 17 17 16 16 16 16 15 15 15 15 15 15 14 14 13 13 13 13 13 13 13 13 13 13 13 12 12 12 11 11 11 11 11 11 10 10 10
18 18 18 18 17 17 17 17 17 16 16 16 15 15 15 15 15 14 14 14 13 13 13 13 13 13 13 13 12 12 12 12 12 12 11 11 11 11 11 11 10 10 10
18 18 18 18 17 17 17 17 17 16 16 16 15 15 15 15 14 14 14 14 13 13 13 13 13 13 13 13 12 12 12 12 12 12 12 11 11 11 11 10 10 10 10
18 18 18 18 18 17 17 17 17 16 16 16 15 15 15 14 14 14 14 13 13 13 13 13 13 13 13 12 12 12 12 11 11 11 11 11 11 10 10 10 10 9 9
19 18 18 18 18 17 17 17 16 16 16 15 15 15 15 14 14 14 14 13 13 13 13 13 13 13 13 12 12 12 11 11 11 10 10 10 10 10 10 9 9 9 9
18 18 18 18 17 17 17 17 16 16 16 15 15 15 14 14 14 14 14 13 13 13 13 13 13 13 12 12 12 12 11 11 10 10 10 10 10 9 9 9 9 9 8
18 18 18 18 17 17 17 17 16 16 15 15 15 15 15 14 14 14 14 13 13 13 12 12 12 12 12 12 11 11 11 10 10 10 10 9 9 9 9 9 9 8 8
18 18 18 17 17 17 17 16 16 16 16 15 15 15 15 14 14 14 14 13 13 13 12 12 12 12 11 11 11 11 10 10 10 9 9 9 9 9 8 8 8 8 7
18 18 17 17 17 17 16 16 16 16 16 15 15 15 15 14 14 14 14 13 13 12 12 12 11 11 11 11 11 10 10 10 10 9 9 9 8 8 8 8 8 7 7
17 17 17 17 17 16 16 16 16 16 15 15 15 15 14 14 14 14 13 13 12 12 12 11 11 11 11 11 10 10 10 9 9 9 9 8 8 8 7 7 7 7 6
17 17 17 17 17 16 16 16 16 15 15 15 15 14 14 14 13 13 13 12 12 12 11 11 11 11 11 10 10 10 9 9 9 9 8 8 8 7 7 7 6 6 6
17 17 17 17 16 16 16 16 15 15 15 15 14 14 14 13 13 13 12 12 12 12 11 11 11 11 10 10 10 9 9 9 8 8 8 8 7 7 6 6 6 6 5
17 17 17 16 16 16 16 15 15 15 15 14 14 14 14 13 13 12 12 12 12 11 11 11 11 10 10 9 9 9 9 8 8 7 7 7 7 6 6 6 5 5 5
17 17 17 16 16 16 15 15 15 15 14 14 14 14 13 13 12 12 12 12 11 11 11 11 10 10 10 9 9 8 8 8 7 7 7 7 6 6 6 5 5 5 4
16 16 16 16 16 15 15 15 15 14 14 14 13 13 13 13 12 12 12 11 11 11 10 10 10 10 9 9 8 8 8 7 7 7 6 6 6 5 5 5 5 4 4
16 16 16 15 15 15 15 14 14 14 14 13 13 13 12 12 12 11 11 11 10 10 10 9 9 9 9 8 8 7 7 7 6 6 6 6 5 5 5 4 4 4 3
15 15 15 15 15 15 14 14 14 13 13 13 12 12 12 11 11 11 10 10 10 10 9 9 9 8 8 8 7 7 7 6 6 6 5 5 5 4 4 4 4 3 3
15 15 15 14 14 14 14 13 13 13 12 12 12 12 11 11 11 10 10 10 9 9 9 8 8 8 7 7 7 6 6 6 5 5 5 4 4 4 3 3 3 3 2
14 14 14 14 13 13 13 13 12 12 12 11 11 11 11 10 10 10 9 9 9 8 8 8 7 7 7 6 6 6 5 5 5 5 4 4 4 3 3 3 2 2 2
13 13 13 13 13 13 12 12 12 11 11 11 10 10 10 10 9 9 9 9 8 8 7 7 7 6 6 5 5 5 5 4 4 4 4 3 3 3 2 2 2 1 1
Wind_Speed
10 9 8 7 7 6 5 5 5 5 5 5 5 5 5 5 6 5 5 5 6 6 6 6 6 5 4 4 3 3 3 3 3 3 3 4 4 5 6 6 6 7 9
10 10 9 8 8 7 7 6 6 5 5 5 5 5 5 5 5 5 5 5 5 6 6 6 6 5 5 4 3 4 4 3 3 3 3 3 4 5 5 5 5 6 6
11 11 10 10 9 8 8 7 6 6 6 6 5 5 5 5 5 5 5 5 5 5 5 5 5 5 4 4 3 4 3 3 2 2 3 2 2 3 3 4 5 5 5
12 12 11 11 10 9 8 8 7 7 6 6 5 5 4 4 4 4 5 4 5 5 5 5 5 4 4 4 3 3 3 3 2 2 2 2 2 3 3 3 3 3 3
13 12 12 11 10 9 8 8 7 7 6 6 5 5 4 3 3 3 4 4 4 4 4 4 5 6 8 5 3 3 2 2 1 2 2 2 2 3 3 3 3 3 3
13 13 12 11 11 10 9 9 8 7 7 6 6 5 5 4 4 2 1 4 4 4 3 3 4 4 5 5 6 7 6 3 2 2 2 2 3 3 3 4 4 4 3
14 13 12 12 12 11 10 9 8 8 7 7 6 6 6 6 7 5 2 2 3 3 3 3 3 2 2 3 4 3 3 4 4 3 3 3 3 4 4 4 4 5 5
15 14 13 13 12 11 11 10 9 8 8 7 7 6 6 6 8 7 6 4 3 3 2 2 3 2 1 0 1 1 2 2 2 2 2 3 4 4 4 5 5 5 4
15 14 14 14 13 13 12 11 10 9 8 8 7 7 7 7 9 8 7 5 4 3 3 2 2 2 3 2 1 1 0 1 2 2 3 3 4 4 5 4 5 5 5
15 14 14 14 14 13 12 11 9 9 8 7 7 7 7 7 9 9 9 5 5 4 3 3 2 0 2 1 2 2 1 1 1 1 2 2 3 2 3 4 5 5 6
14 13 13 13 13 12 11 10 9 9 8 8 8 7 7 6 9 10 8 5 5 4 4 3 3 4 2 2 3 2 2 3 3 2 2 2 2 3 3 4 4 4 6
12 12 13 13 11 10 11 10 10 9 9 8 8 7 6 6 6 9 9 7 4 5 4 3 3 6 5 4 3 1 2 4 3 3 3 3 3 3 4 5 5 6 6
13 13 12 12 11 11 11 11 10 9 8 8 7 7 6 6 6 8 9 8 5 4 3 2 2 5 5 4 4 4 4 3 3 4 4 4 4 5 5 5 5 6 8
13 13 12 12 11 11 9 9 9 9 9 8 8 7 7 6 6 7 7 7 7 6 4 4 5 4 4 3 4 4 4 4 4 5 5 5 5 4 4 4 5 5 6
13 12 11 11 10 10 9 7 9 8 8 8 8 8 7 7 7 7 7 7 6 6 6 5 4 4 4 4 4 4 4 4 5 5 5 5 5 5 5 5 5 6 7
11 11 10 9 9 9 8 6 2 1 4 3 3 5 5 4 8 9 8 6 6 7 6 5 5 5 5 5 5 5 5 5 5 5 5 6 6 6 6 6 6 6 7
11 10 9 9 9 9 8 8 6 3 3 3 4 5 5 7 9 10 10 9 8 8 6 6 6 5 5 5 5 5 6 5 5 5 6 6 6 6 7 7 7 7 8
10 9 9 8 8 8 8 8 7 7 6 4 5 6 7 8 9 10 11 9 6 7 7 7 6 6 6 6 6 6 6 5 5 6 6 6 6 7 7 8 8 8 9
9 8 8 7 7 7 7 7 7 7 6 5 5 6 8 8 8 8 10 7 7 7 7 7 7 6 6 6 6 6 6 6 6 6 6 7 7 7 7 8 8 9 9
7 7 7 7 7 7 7 7 6 6 6 6 6 5 6 7 6 7 7 7 7 7 7 7 6 6 6 5 5 5 6 6 6 7 7 7 7 7 8 9 9 9 9
6 7 8 7 7 7 6 6 6 6 6 5 5 6 7 7 7 7 7 7 7 7 6 6 6 5 5 5 5 6 7 6 6 6 6 7 7 7 8 8 9 9 9
6 6 7 7 6 6 6 6 6 5 6 5 4 5 7 6 5 5 6 6 6 5 5 5 5 5 5 5 6 6 6 6 6 6 7 7 7 8 8 8 9 9 9
6 6 6 6 5 6 6 5 5 5 5 5 5 5 5 5 5 5 5 4 4 4 4 5 5 4 4 5 5 5 6 6 6 6 7 7 7 8 8 9 10 10 10
5 6 6 6 6 6 5 5 5 5 5 5 5 5 5 5 5 5 4 4 4 4 4 4 4 5 5 4 4 5 5 5 6 6 8 8 8 8 8 8 9 10 10
5 5 5 5 5 5 5 5 5 5 5 5 5 4 4 4 4 4 4 4 4 4 4 4 4 4 5 5 4 4 3 4 5 6 7 7 8 8 9 9 9 10 11
4 4 4 4 4 4 5 5 5 5 5 4 4 4 4 4 4 4 4 4 4 4 4 4 4 4 5 5 4 3 3 4 5 7 8 7 8 8 9 9 11 11 11
Wind_Direction
183 181 176 171 167 164 161 156 154 147 144 135 129 121 113 109 106 99 91 91 90 92 88 83 77 69 74 67 59 56 46 53 96 88 70 56 46 38 35 35 39 42 55
183 180 179 172 172 170 166 166 165 154 147 143 137 132 120 113 107 106 101 95 91 87 85 85 85 81 73 64 60 62 59 56 82 94 81 54 42 35 28 24 30 35 44
181 181 181 179 178 174 171 168 167 160 155 151 148 143 133 128 123 119 116 110 100 90 84 81 81 83 80 75 66 68 67 64 65 90 75 49 36 31 24 20 32 27 30
179 183 184 184 182 179 172 172 172 166 164 161 154 148 142 140 138 134 125 120 109 100 90 80 73 73 70 73 71 69 66 71 62 64 67 56 39 20 6 6 12 18 11
181 185 186 184 181 178 172 173 172 171 172 168 164 157 150 152 145 144 136 131 123 112 100 88 73 61 46 42 44 58 61 58 58 43 42 31 29 10 2 350 350 347 9
183 185 182 182 178 180 178 175 173 175 175 172 174 165 158 154 118 104 167 147 138 131 122 110 105 100 92 79 55 41 26 26 28 29 20 10 10 7 353 336 340 338 346
186 185 181 182 180 182 177 175 176 176 175 175 175 170 168 152 143 154 183 156 147 142 143 133 115 109 134 119 120 125 73 37 3 349 358 359 349 351 338 336 341 337 333
185 185 182 182 181 180 179 181 181 179 178 180 178 175 170 163 157 163 176 175 163 160 162 157 151 138 105 104 133 103 61 44 19 344 353 353 351 343 330 325 322 313 304
186 185 184 184 183 182 184 186 183 181 182 182 179 181 180 172 166 175 194 177 178 176 168 162 168 152 99 292 217 173 146 90 81 52 18 9 12 356 330 315 318 313 314
188 185 184 186 186 186 187 185 181 181 183 180 180 186 185 182 167 182 210 190 189 183 177 169 115 149 116 239 225 232 254 283 277 212 233 245 275 287 291 304 313 311 313
184 181 182 185 187 186 182 180 176 177 179 182 181 184 188 187 170 181 208 209 200 196 192 191 171 162 178 208 263 268 297 301 284 283 285 289 292 303 306 300 304 300 300
174 177 180 181 180 178 176 177 177 175 177 182 184 184 188 186 184 181 192 217 244 210 209 206 169 157 183 205 222 246 278 277 275 278 281 286 292 296 302 302 295 288 286
171 176 178 177 176 175 175 176 176 180 185 187 189 191 190 186 177 174 187 198 217 221 211 109 129 166 187 196 207 227 236 250 262 269 278 284 289 293 296 295 290 287 285
174 176 176 177 175 176 177 180 182 186 190 192 195 196 192 189 189 184 187 189 190 204 209 176 173 187 213 233 214 217 235 248 257 265 274 281 284 283 281 284 285 288 287
172 173 174 176 174 177 179 185 192 193 197 197 197 196 193 198 188 176 187 190 194 194 194 204 212 213 219 226 233 236 239 241 247 258 268 275 278 278 278 279 281 284 287
171 172 172 171 172 175 174 172 112 154 146 182 199 203 195 172 150 163 174 172 166 172 194 215 221 226 233 237 239 240 241 246 253 258 263 268 273 277 280 280 278 279 285
171 169 169 170 171 175 177 178 174 152 126 161 178 183 179 158 157 167 172 172 175 181 208 225 230 232 235 238 242 246 250 251 253 255 259 265 271 275 278 280 280 281 283
167 161 163 169 172 176 179 182 181 177 175 175 179 178 171 167 170 172 169 169 190 204 222 229 233 236 237 240 244 248 253 257 257 259 262 266 269 274 277 279 281 284 286
163 162 165 167 170 172 174 177 178 179 178 172 165 163 168 169 171 178 182 203 212 214 220 229 234 237 239 240 244 248 252 257 260 261 264 267 270 272 275 278 281 283 283
159 149 155 161 164 167 171 174 176 177 178 177 178 172 167 178 189 190 201 215 221 223 224 228 233 236 237 239 242 246 252 255 259 260 264 267 269 271 274 278 281 284 285
153 153 155 162 167 170 173 176 177 179 181 183 184 174 176 191 198 201 205 213 221 226 229 231 232 232 235 239 242 245 250 257 258 262 265 268 269 271 273 276 279 282 286
155 158 168 171 169 172 174 175 177 180 183 184 178 168 175 198 203 208 212 217 223 228 230 231 233 232 234 238 242 247 253 258 262 265 269 270 271 272 274 275 278 282 284
156 158 162 165 166 158 166 172 175 178 181 184 179 175 183 200 207 212 217 220 221 224 224 225 229 232 235 240 245 250 257 263 271 277 276 276 276 276 277 278 280 284 286
158 160 160 161 162 165 169 172 176 179 182 184 184 185 190 198 207 209 210 212 212 213 215 218 224 232 240 245 247 251 261 275 283 281 280 279 280 282 282 282 284 286 286
163 163 163 163 164 167 169 171 175 179 183 189 191 192 195 199 203 205 207 206 206 208 212 217 222 235 244 246 249 258 272 282 284 286 283 280 279 281 283 285 285 288 287
164 164 163 163 165 170 173 176 180 184 188 191 194 196 198 200 203 205 206 205 207 209 212 217 226 237 247 249 254 263 272 278 284 287 285 283 281 281 284 284 287 286 287
Height
1569 1571 1573 1574 1576 1577 1579 1580 1581 1582 1582 1582 1583 1583 1583 1583 1583 1582 1582 1582 1582 1582 1582 1581 1580 1580 1580 1580 1580 1580 1580 1580 1580 1579 1578 1577 1575 1574 1572 1571 1570 1568 1566
1567 1570 1572 1573 1575 1577 1578 1579 1581 1582 1583 1583 1583 1584 1584 1584 1584 1584 1583 1583 1583 1583 1583 1583 1582 1581 1581 1581 1581 1581 1580 1580 1580 1579 1579 1577 1576 1574 1573 1571 1570 1568 1567
1565 1568 1570 1572 1574 1576 1578 1579 1580 1581 1582 1583 1584 1584 1585 1585 1585 1585 1585 1585 1585 1584 1584 1584 1584 1583 1583 1582 1582 1582 1581 1581 1580 1580 1579 1577 1576 1574 1573 1572 1570 1568 1567
1562 1565 1568 1571 1573 1575 1577 1578 1580 1581 1582 1583 1584 1585 1585 1585 1586 1586 1586 1586 1586 1585 1585 1584 1584 1584 1584 1583 1583 1582 1582 1581 1581 1580 1579 1578 1576 1575 1573 1572 1570 1568 1566
1560 1563 1566 1569 1571 1574 1576 1577 1579 1580 1582 1583 1584 1584 1585 1585 1586 1586 1586 1586 1586 1586 1586 1585 1585 1584 1584 1583 1583 1583 1582 1582 1581 1581 1579 1578 1577 1575 1573 1571 1570 1568 1566
1556 1560 1563 1566 1569 1572 1574 1576 1578 1579 1581 1582 1583 1584 1584 1585 1585 1585 1586 1587 1587 1586 1586 1586 1585 1585 1584 1584 1583 1582 1582 1582 1581 1580 1579 1578 1577 1575 1573 1571 1569 1568 1566
1553 1557 1560 1563 1566 1569 1572 1574 1576 1578 1579 1580 1582 1582 1583 1584 1584 1585 1585 1586 1586 1586 1586 1586 1585 1585 1584 1584 1583 1582 1582 1581 1580 1580 1579 1578 1576 1575 1573 1571 1569 1567 1565
1550 1553 1557 1560 1563 1566 1569 1571 1574 1576 1577 1579 1580 1581 1582 1583 1583 1584 1584 1585 1585 1585 1585 1585 1585 1585 1584 1584 1583 1583 1582 1581 1580 1579 1578 1577 1575 1573 1571 1570 1568 1566 1563
1546 1549 1553 1557 1560 1563 1566 1569 1571 1573 1575 1577 1578 1579 1580 1581 1582 1583 1583 1584 1584 1584 1584 1584 1584 1584 1583 1583 1583 1582 1581 1580 1579 1577 1576 1575 1574 1572 1570 1568 1566 1565 1563
1541 1545 1549 1553 1557 1560 1563 1566 1568 1570 1572 1574 1575 1577 1578 1579 1580 1581 1581 1582 1583 1583 1583 1583 1582 1583 1582 1582 1582 1581 1580 1579 1578 1576 1575 1573 1572 1570 1568 1567 1565 1563 1561
1538 1542 1546 1549 1553 1556 1559 1562 1565 1567 1569 1571 1573 1574 1575 1577 1577 1578 1579 1580 1581 1581 1581 1581 1581 1581 1580 1580 1580 1579 1578 1578 1576 1575 1574 1572 1570 1569 1567 1565 1563 1561 1559
1533 1538 1542 1546 1549 1552 1556 1559 1561 1564 1566 1568 1570 1571 1572 1573 1574 1575 1576 1577 1578 1579 1579 1579 1579 1578 1578 1578 1577 1576 1576 1575 1574 1573 1571 1570 1568 1566 1564 1562 1560 1558 1556
1530 1534 1538 1542 1545 1549 1552 1555 1558 1560 1562 1564 1566 1568 1569 1570 1571 1572 1573 1574 1575 1575 1576 1576 1576 1576 1575 1575 1574 1574 1573 1572 1571 1570 1568 1567 1565 1563 1561 1559 1557 1554 1552
1527 1531 1534 1538 1541 1545 1548 1551 1553 1556 1558 1560 1562 1564 1565 1566 1568 1569 1569 1570 1571 1572 1572 1572 1573 1572 1572 1571 1571 1570 1569 1568 1567 1566 1565 1564 1562 1560 1557 1555 1553 1551 1548
1523 1527 1531 1534 1537 1541 1544 1546 1549 1552 1554 1557 1558 1560 1561 1563 1564 1566 1567 1567 1568 1569 1569 1569 1569 1569 1569 1568 1567 1567 1566 1565 1564 1562 1561 1560 1558 1556 1554 1552 1550 1547 1545
1520 1524 1527 1530 1534 1537 1540 1543 1545 1548 1550 1553 1555 1557 1558 1560 1561 1562 1563 1564 1565 1565 1566 1565 1565 1565 1565 1564 1564 1563 1562 1561 1559 1558 1557 1555 1554 1552 1550 1548 1546 1544 1541
1517 1520 1524 1527 1530 1533 1536 1539 1541 1544 1547 1549 1551 1552 1554 1555 1557 1558 1559 1560 1561 1561 1561 1561 1561 1561 1561 1560 1560 1559 1558 1557 1555 1554 1552 1551 1549 1548 1546 1544 1541 1539 1537
1515 1518 1521 1524 1527 1530 1533 1536 1538 1540 1542 1544 1546 1548 1550 1552 1553 1554 1555 1556 1556 1557 1557 1557 1557 1557 1556 1556 1555 1554 1553 1552 1551 1549 1548 1546 1544 1543 1541 1539 1537 1534 1532
1513 1515 1519 1522 1525 1528 1530 1533 1535 1537 1539 1541 1543 1544 1546 1548 1549 1550 1551 1552 1552 1552 1552 1553 1553 1552 1552 1551 1550 1549 1548 1547 1546 1544 1543 1541 1539 1537 1535 1533 1531 1529 1526
1510 1513 1516 1519 1522 1524 1527 1529 1532 1534 1536 1537 1539 1540 1542 1543 1544 1545 1546 1547 1547 1547 1548 1548 1548 1547 1547 1546 1545 1544 1543 1542 1541 1539 1538 1536 1534 1532 1530 1528 1525 1523 1520
1508 1511 1514 1517 1519 1521 1524 1526 1528 1530 1532 1534 1535 1536 1538 1539 1540 1541 1542 1542 1542 1543 1543 1543 1543 1542 1542 1541 1540 1539 1538 1537 1535 1534 1532 1530 1528 1526 1524 1522 1520 1517 1514
1507 1509 1511 1514 1516 1518 1521 1523 1525 1527 1528 1530 1531 1532 1534 1535 1536 1537 1537 1538 1538 1538 1538 1538 1538 1537 1537 1536 1535 1534 1533 1532 1530 1529 1527 1525 1523 1520 1518 1516 1513 1511 1509
1505 1507 1509 1511 1513 1515 1518 1519 1521 1523 1525 1526 1527 1528 1529 1530 1531 1532 1532 1533 1533 1533 1533 1532 1532 1532 1531 1531 1530 1529 1528 1526 1525 1523 1521 1519 1517 1515 1512 1510 1507 1505 1503
1502 1504 1506 1508 1510 1512 1514 1516 1518 1519 1521 1522 1523 1524 1525 1526 1527 1527 1528 1528 1528 1528 1527 1527 1527 1526 1526 1525 1524 1523 1522 1520 1519 1517 1515 1513 1511 1509 1506 1504 1502 1499 1497
1500 1501 1503 1505 1507 1509 1511 1512 1514 1515 1517 1518 1519 1520 1521 1522 1522 1523 1523 1523 1523 1523 1522 1522 1522 1521 1520 1520 1519 1517 1516 1515 1513 1511 1509 1507 1505 1503 1500 1498 1496 1493 1491
1497 1499 1500 1502 1504 1506 1507 1509 1510 1511 1513 1514 1515 1515 1516 1517 1517 1517 1518 1518 1517 1517 1517 1517 1516 1516 1515 1514 1513 1512 1511 1509 1507 1505 1503 1501 1499 1497 1495 1492 1490 1487 1484